Regional Weather Roundup
Issued by NWS

Home | Current Version | Previous Version | Text Only | Print | Product List | Glossary On
Versions: 1 2 3 4 5 6 7 8 9 10 11 12 13 14 15 16 17 18 19 20 21 22 23 24 25 26 27
000
ASUS44 KJAN 291720
RWRMS

MISSISSIPPI HOURLY WEATHER ROUNDUP
NATIONAL WEATHER SERVICE JACKSON MS
1200 PM CDT MON AUG 29 2016

NOTE: "FAIR: INDICATES FEW OR NO CLOUDS BELOW 12,000 FEET WITH NO
SIGNIFICANT WEATHER AND/OR OBSTRUCTIONS TO VISIBILITY.

MSZ001>002-007>008-010>013-018>021-025>028-034>036-291800-
NORTHWEST MISSISSIPPI

CITY           SKY/WX    TMP DP  RH WIND       PRES   REMARKS
CLARKSDALE     SUNNY     91  75  59 NE3       30.08F HX 102
GREENWOOD      SUNNY     93  71  48 NE8       30.06F HX 100
GREENVILLE     SUNNY     94  73  50 VRB7      30.07S HX 103
OLIVE BRANCH   MOSUNNY  N/A N/A N/A E6        30.11F
OXFORD         FAIR      90  70  51 NE3       30.11F HX  95
TUNICA         SUNNY     88  73  62 CALM      30.10F HX  96
$$

MSZ003>006-009-014>017-022>024-029>033-037>039-291800-
NORTHEAST MISSISSIPPI

CITY           SKY/WX    TMP DP  RH WIND       PRES   REMARKS
COLUMBUS AFB   SUNNY     90  76  64 VRB1      30.08F HX 102
CORINTH        FAIR      88  72  58 CALM      30.12S HX  94
GOLDN TRIANGLE SUNNY     91  72  52 E5        30.08F HX  98
TUPELO         SUNNY     91  71  51 N7        30.10F HX  97
$$

MSZ040-058-291800-
CENTRAL MISSISSIPPI

CITY           SKY/WX    TMP DP  RH WIND       PRES   REMARKS
JACKSON INTL   MOSUNNY   92  72  51 E5        30.05F HX  99
JACKSON HAWKNS MOSUNNY   93  71  48 NE9       30.05F HX 100
MERIDIAN KEY   SUNNY     93  71  48 E6        30.06F HX 100
MERIDIAN NAS   MOSUNNY   93  68  43 NE9       30.07F HX  97
$$

MSZ059>079-291800-
SOUTH MISSISSIPPI

CITY           SKY/WX    TMP DP  RH WIND       PRES   REMARKS
BROOKHAVEN     FAIR     N/A N/A N/A NE3       30.06S
HATTIESBURG    SUNNY     92  71  50 E12       30.03S HX  98
MCCOMB         SUNNY     90  71  53 VRB7      30.03S HX  96
NATCHEZ        SUNNY     90  73  58 E9        30.03S HX  98
PINE BELT      MOSUNNY  N/A N/A N/A NE9G17    30.05
$$

MSZ080>082-291800-
COASTAL MISSISSIPPI

CITY           SKY/WX    TMP DP  RH WIND       PRES   REMARKS
BAY ST LOUIS   MOSUNNY   90  70  51 SE7       30.01S HX  95
BILOXI         MOSUNNY   91  77  64 E9        30.00S HX 104
PASCAGOULA     PTSUNNY   89  77  67 E7        30.01S HX 101
GULFPORT       MOSUNNY   90  76  63 E8G17     30.00S HX 101
$$

LAZ007>009-015>016-023>026-291800-
NORTHEAST LOUISIANA

CITY           SKY/WX    TMP DP  RH WIND       PRES   REMARKS
BASTROP        FAIR      91  72  53 E7        30.06S HX  98
TALLULAH/VBURG SUNNY     93  74  53 E8        30.03F HX 103
$$




USA.gov is the U.S. government's official web portal to all federal, state and local government web resources and services.